Torna al catalogo

HULIANWANG DIGUI-111

AttivoComunicazioniLEO
NORAD 66921·PAYLOAD·🇨🇳 China

Lanciato Dec 6, 2025 da Wenchang Space Launch Site

Loading…

Prossimi Passaggi (prossime 24 ore)

TLE

AggiornatoSource: Space-Track

Epoca: Sep 14, 2026, 05:07 UTC

1 66921U 25285G   26257.21353378 -.00000086  00000-0  81668-4 0  9998
2 66921  50.0114 186.6515 0000177 262.8981  97.1871 13.29328897 37904

Traccia HULIANWANG DIGUI-111 in tempo reale con AllMySat

Download on the App Store